GFSNIL_con_3kmhel_126.txt.gz
Helicity
48 103 90 109 131 114 132 151 119 120 119 136 122 133 120 139 127 124 101 97 143 192
107 93 85 65 76 98 106 112 103 93 111 115 113 114 121 122 111 139 128 160 213 226
147 126 132 98 83 122 157 169 161 147 137 166 147 98 104 123 136 152 188 217 144 138
85 87 132 147 159 172 176 173 156 148 124 95 160 149 227 247 185 128 195 153 135 191
161 132 178 208 224 175 194 179 155 182 184 178 86 140 392 267 320 275 250 256 234 219
142 122 144 149 278 331 285 244 187 160 167 179 223 99 106 113 120 112 105 178 159 163
147 130 167 141 141 229 251 209 94 115 66 75 87 105 89 48 70 83 91 95 101 109
16 72 7 18 35 63 102 105 68 20 25 31 84 79 96 67 76 83 105 125 107 93
-31 1 -16 27 31 38 45 59 59 66 67 63 66 84 103 104 96 99 97 102 119 125
11 10 24 21 27 37 34 21 53 54 65 82 92 125 119 125 87 92 94 101 120 133
26 33 29 33 36 27 35 51 47 51 43 50 67 90 99 95 81 95 98 87 92 107
9 9 26 41 45 50 52 53 51 46 53 54 59 82 102 112 84 85 102 105 91 74
27 31 37 40 41 39 46 46 47 45 46 55 55 71 96 117 111 101 77 47 41 50
57 60 56 53 50 52 53 53 61 60 59 71 77 77 87 81 76 57 43 33 22 38

GFSNIL_con_3kmhel_132.txt.gz
Helicity
61 28 36 37 52 63 65 71 88 96 106 116 112 106 98 120 120 119 141 137 147 138
57 67 58 62 46 47 50 64 77 83 94 83 104 95 86 102 105 132 146 147 151 143
-1 61 60 63 78 82 84 78 70 75 131 137 130 105 131 136 113 101 115 129 130 126
-64 -71 -44 33 64 60 62 76 88 100 128 121 132 133 108 105 130 134 126 132 103 161
-41 -46 -61 -39 -39 92 97 103 96 111 130 135 134 141 131 116 123 144 172 200 205 252
-48 -67 -78 -56 -15 98 144 151 140 142 147 147 144 170 176 171 178 204 208 207 271 342
17 19 27 28 30 81 135 185 209 199 165 169 156 140 169 212 208 216 219 197 116 95
45 55 17 16 16 4 32 46 92 119 139 130 111 99 144 93 88 77 64 63 77 40
54 48 38 56 13 13 7 18 37 41 70 89 88 11 -41 15 15 40 71 84 93 90
52 38 43 38 21 22 19 4 -7 -12 -17 -3 13 6 23 6 41 55 56 52 54 74
61 57 42 40 41 32 29 27 23 23 31 45 61 68 64 69 67 75 86 88 85 87
65 59 61 50 46 41 43 46 46 46 52 58 64 82 91 82 84 92 100 102 94 89
67 60 52 51 50 47 49 50 58 62 59 59 57 70 85 89 85 103 103 107 103 93
96 92 84 86 80 71 65 64 61 60 57 61 57 56 76 85 85 86 96 110 115 107

GFSNIL_con_3kmhel_135.txt.gz
Helicity
51 34 43 38 25 24 31 31 49 82 74 79 113 122 104 94 91 98 78 53 61 89
19 -8 -35 46 50 38 35 39 47 44 59 79 102 115 81 84 115 128 119 101 102 130
2 -12 -26 -55 -29 51 43 49 57 71 75 85 110 116 100 114 109 103 110 113 106 127
14 12 -1 -22 -74 -59 3 59 65 63 54 109 129 130 143 153 159 153 153 171 164 145
39 16 7 -9 -37 -41 -56 41 87 70 91 104 130 119 111 85 84 107 113 126 153 196
21 22 24 27 4 -7 14 15 124 128 119 120 113 98 107 111 118 143 153 160 165 172
72 85 57 28 5 25 22 24 62 118 125 96 97 99 97 108 137 167 157 160 174 187
78 71 77 70 48 45 35 34 41 61 63 100 84 69 28 92 94 114 119 134 150 178
31 35 29 20 19 32 23 -10 -13 4 2 3 15 65 28 35 45 46 62 86 105 102
54 45 35 27 28 29 29 29 29 30 36 51 48 36 7 -1 35 86 94 87 89 97
59 48 50 46 41 43 44 45 45 45 41 41 42 46 54 70 72 84 85 78 70 71
80 77 77 70 57 49 49 46 42 44 48 48 41 58 64 72 67 74 75 70 72 80
87 76 67 61 65 62 66 66 70 61 48 46 52 63 73 78 79 85 80 82 79 78
100 92 80 81 86 81 78 75 71 67 62 58 54 52 76 83 79 80 82 81 80 72

GFSNIL_con_3kmhel_138.txt.gz
Helicity
57 64 72 73 66 62 45 47 55 20 50 44 33 38 52 62 66 87 100 112 96 88
57 52 57 53 56 41 33 28 64 54 58 64 62 69 60 64 74 71 70 84 107 96
29 43 56 61 74 44 12 9 -11 20 58 68 58 83 94 90 91 85 90 104 111 130
21 26 36 48 63 45 16 9 7 15 32 53 67 94 98 84 90 105 125 149 169 192
9 -0 25 46 62 41 13 -1 17 12 13 24 59 94 94 92 100 73 73 90 100 96
8 1 -0 16 13 35 68 1 14 38 42 46 53 73 78 67 77 98 109 116 131 152
53 50 56 56 49 33 30 19 -11 4 24 50 79 82 51 65 81 104 128 161 159 141
43 43 34 24 26 36 30 21 21 15 22 38 50 62 60 20 59 106 130 143 151 131
51 45 45 39 34 37 28 18 18 39 55 48 51 65 54 21 30 32 36 78 62 81
69 64 54 51 42 41 39 34 37 42 46 49 42 54 54 67 54 69 80 80 74 65
68 61 55 54 53 50 54 51 43 38 39 45 52 56 61 70 63 69 65 66 72 80
90 78 76 68 63 66 64 58 54 52 51 49 40 47 56 67 64 70 71 69 72 73
133 114 97 82 82 85 80 68 69 67 59 52 54 51 61 74 75 75 73 78 71 66
167 162 141 135 134 117 106 105 94 78 68 58 57 46 59 73 79 79 83 77 69 56

GFSNIL_con_3kmhel_141.txt.gz
Helicity
5 23 32 28 31 37 40 67 67 61 61 77 75 48 36 45 38 38 52 61 70 85
7 31 32 42 50 48 37 50 59 65 61 62 61 52 53 53 43 47 46 55 54 72
14 6 21 42 55 54 43 40 46 60 62 50 37 24 39 68 71 64 68 72 79 105
29 2 11 38 42 31 35 62 44 49 39 21 1 17 48 70 94 100 92 103 101 124
36 39 28 9 -6 6 42 71 -8 19 31 17 -7 -4 20 25 46 61 59 59 74 96
55 55 47 41 33 35 53 46 4 4 5 -10 -13 1 18 24 37 81 97 97 104 111
53 38 23 15 28 28 20 10 3 6 6 -15 3 25 39 24 10 47 83 117 119 143
40 41 28 30 34 35 31 25 29 28 21 22 33 45 65 62 16 19 44 41 62 54
64 61 51 50 51 49 51 57 54 58 61 64 57 56 50 42 39 38 50 56 59 52
95 88 80 75 78 74 65 66 70 71 75 76 63 67 71 73 66 74 79 78 70 69
121 97 95 91 83 84 85 84 85 75 73 68 64 71 75 81 76 79 81 78 74 71
148 138 133 112 103 104 102 88 78 83 86 82 76 80 96 101 93 90 82 72 66 67
211 175 143 109 99 109 112 97 100 92 85 82 90 91 97 95 87 87 78 74 69 66
182 184 185 181 153 130 120 117 110 98 96 85 81 84 85 93 96 92 90 82 76 72

GFSNIL_con_3kmhel_147.txt.gz
Helicity
42 40 42 42 55 51 48 49 49 52 55 45 33 32 32 32 41 47 62 67 53 32
50 57 51 57 40 30 12 14 22 28 16 7 8 35 45 55 53 53 49 42 39 34
52 65 62 66 57 38 9 6 17 43 18 17 32 53 56 52 57 60 63 44 17 2
62 68 61 61 48 14 17 40 27 26 17 8 23 36 46 63 80 70 49 26 11 -1
80 75 68 44 -5 23 24 39 30 31 35 27 25 32 41 57 68 67 49 39 28 21
122 98 72 54 56 48 37 46 38 40 50 56 50 43 47 48 65 89 56 38 56 44
131 106 89 76 77 65 57 59 57 50 53 53 49 50 54 60 58 68 59 65 69 56
140 133 118 108 96 88 85 78 75 67 68 68 66 71 63 68 67 80 68 53 60 71
144 150 142 121 105 99 93 89 89 84 86 89 82 99 78 61 74 74 71 88 93 86
149 152 155 141 124 110 100 99 103 97 92 89 94 102 84 78 86 97 99 93 88 90
157 170 176 174 147 132 115 104 101 88 86 83 86 103 89 90 94 96 89 85 89 86
121 156 178 186 171 169 152 132 121 114 113 103 96 103 91 95 95 90 93 93 92 91
130 141 151 159 175 174 174 167 166 140 126 110 105 135 103 99 108 99 110 105 102 102
119 123 140 150 184 200 194 183 168 154 141 124 121 127 107 98 117 120 131 124 116 113